Location: Casteau
(50.5142°N, 4.0161°E)
Time: 05:28:54
(UTC+00:00)

Cosmos 1025 Rocket - Pass Details

Date: 18 September 2020
Orbit: 595 x 617 km, 82.5° (Epoch: 27 October)

Event Time Altitude Azimuth Distance (km) Brightness Sun altitude
Rises 18:44:48 0° 354° (N) 2,886 6.8 -9.4°
Reaches altitude 10° 18:47:07 10° 1° (N) 1,980 5.8 -9.8°
Maximum altitude 18:51:19 44° 74° (ENE) 861 3.4 -10.4°
Drops below altitude 10° 18:55:30 10° 147° (SSE) 1,975 5.2 -11.1°
Enters shadow 18:56:08 - 149° (SSE) 2,215 5.5 -11.1°
